| time (UTC) | temp F | wind direction | speed MPH | gust MPH | rain 1hr in | rain 24hr in | rain mn in | humidity % | barometer mb |
| 20260507053859 | 56 | 184 | 5.0 | 7.0 | 0.00 | 0.00 | 0.00 | 100 | 1008.8 |
| 20260507053507 | 56 | 112 | 1.0 | 1.0 | 0.00 | 0.00 | 0.00 | 100 | 1008.8 |
| 20260507043340 | 53 | 135 | 1.0 | 1.0 | 0.00 | 0.00 | 0.00 | 100 | 1008.0 |
| 20260507042947 | 54 | 118 | 0.0 | 0.0 | 0.00 | 0.00 | 0.00 | 100 | 1008.0 |
| 20260507032820 | 55 | 283 | 4.0 | 8.0 | 0.00 | 0.00 | 0.00 | 100 | 1007.5 |
| 20260507032427 | 55 | 114 | 1.0 | 1.0 | 0.00 | 0.00 | 0.00 | 100 | 1007.4 |
| 20260507022300 | 56 | 270 | 2.0 | 4.0 | 0.00 | 0.00 | 0.00 | 100 | 1007.1 |
| 20260507021907 | 56 | 112 | 0.0 | 0.0 | 0.00 | 0.00 | 0.00 | 100 | 1007.0 |
| 20260507011840 | 57 | 337 | 3.0 | 6.0 | 0.00 | 0.00 | 0.00 | 100 | 1006.6 |
| 20260507011740 | 57 | 337 | 3.0 | 6.0 | 0.00 | 0.00 | 0.00 | 100 | 1006.6 |
| 20260507011347 | 57 | 122 | 1.0 | 1.0 | 0.00 | 0.00 | 0.00 | 100 | 1006.5 |
| 20260507001220 | 58 | 292 | 3.0 | 11.0 | 0.00 | 0.00 | 0.00 | 100 | 1006.3 |
| 20260507000828 | 57 | 114 | 2.0 | 2.0 | 0.00 | 0.00 | 0.00 | 100 | 1006.2 |
| 20260506230702 | 58 | 180 | 0.0 | 3.0 | 0.00 | 0.00 | 0.00 | 100 | 1005.9 |
| 20260506230309 | 58 | 112 | 0.0 | 0.0 | 0.00 | 0.00 | 0.00 | 100 | 1005.9 |
| 20260506220227 | 57 | 270 | 3.0 | 5.0 | 0.00 | 0.00 | 0.00 | 100 | 1005.0 |
| 20260506215834 | 57 | 310 | 4.0 | 6.0 | 0.00 | 0.00 | 0.00 | 100 | 1005.1 |
| 20260506205629 | 56 | 177 | 3.0 | 4.0 | 0.00 | 0.00 | 0.00 | 1004.3 | |
| 20260506205235 | 56 | 112 | 0.0 | 0.0 | 0.00 | 0.00 | 0.00 | 100 | 1004.0 |
| 20260506205231 | 56 | 112 | 0.0 | 0.0 | 0.00 | 0.00 | 0.00 | 100 | 1004.1 |
| 20260506195104 | 58 | 315 | 7.0 | 8.0 | 0.00 | 0.00 | 0.00 | 100 | 1003.5 |
| 20260506194712 | 58 | 111 | 0.0 | 0.0 | 0.00 | 0.00 | 0.00 | 100 | 1003.5 |
| 20260506184307 | 65 | 270 | 5.0 | 11.0 | 0.00 | 0.00 | 0.00 | 72 | 1002.0 |
| 20260506174101 | 72 | 256 | 9.0 | 10.0 | 0.00 | 0.00 | 0.00 | 42 | 999.8 |
| 20260506173708 | 74 | 268 | 8.0 | 10.0 | 0.00 | 0.00 | 0.00 | 38 | 999.7 |
| 20260506163501 | 80 | 188 | 7.0 | 7.0 | 0.00 | 0.00 | 0.00 | 26 | 999.5 |
| 20260506152902 | 87 | 238 | 3.0 | 6.0 | 0.00 | 0.00 | 0.00 | 22 | 1000.3 |
| 20260506142306 | 88 | 148 | 2.0 | 4.0 | 0.00 | 0.00 | 0.00 | 26 | 1000.9 |
| 20260506131704 | 90 | 165 | 5.0 | 9.0 | 0.00 | 0.00 | 0.00 | 23 | 1001.6 |
| 20260506121458 | 86 | 225 | 3.0 | 10.0 | 0.00 | 0.00 | 0.00 | 28 | 1002.6 |
| 20260506121105 | 86 | 135 | 10.0 | 10.0 | 0.00 | 0.00 | 0.00 | 26 | 1002.6 |
| 20260506110859 | 87 | 150 | 1.0 | 2.0 | 0.00 | 0.00 | 0.00 | 30 | 1003.3 |
| 20260506100259 | 83 | 53 | 1.0 | 4.0 | 0.00 | 0.00 | 0.00 | 38 | 1004.2 |
| 20260506085700 | 78 | 136 | 3.0 | 5.0 | 0.00 | 0.00 | 0.00 | 47 | 1004.7 |